[[{"header":{"parameterUnit":"m.s-1","parameterCategory":1,"la1":30.2991,"la2":30.254,"lo1":-89.0895,"lo2":-89.0444,"dy":0.0017,"dx":0.0017,"nx":28,"ny":28,"refTime":"2024-07-13T09:00:00:Z","depth":0,"parameterNumber":2,"parameterNumberName":"U-component_of_WINDS"},"data":[0,0,0,0,0,0,0,0,0,0,0,0,0,0,0,0,0,0,0,0,0,0,0,0,0,0,0,0,0,0,0,0,0,0,0,0,0,0,0,0,0,0,0,0,0,0,0,0,0,0,0,0,0,0,0,0,0,0,2.4555,2.4559,0,2.4978,2.4983,2.4988,2.5197,2.5198,2.5198,2.5198,2.5622,2.5632,2.5644,0,0,0,0,0,0,0,0,0,0,0,0,0,2.3918,2.3929,2.4554,2.456,2.4565,2.4978,2.4983,2.4989,2.5197,2.5198,2.5198,2.5198,2.5618,2.5631,2.5645,0,0,0,0,0,0,0,0,0,0,0,0,0,2.4253,2.3932,2.4553,2.4719,2.4738,2.4976,2.4984,2.4991,2.5197,2.5198,2.5198,2.5198,2.5613,2.563,2.5646,2.5749,0,0,2.5698,2.5705,0,0,0,0,0,0,0,0,2.4233,2.4276,2.4689,2.4708,2.473,2.5035,2.4915,2.5245,2.5197,2.5023,2.5198,2.5198,2.5426,2.5458,2.5537,2.5769,2.5787,2.57,2.571,2.5717,2.5722,0,0,0,0,0,0,0,2.421,2.4259,2.4722,2.4695,2.472,2.4769,2.4817,2.4978,2.5218,2.5038,2.5054,2.5102,2.5437,2.552,2.5549,2.5794,2.5699,2.5714,2.5724,2.5731,2.6134,2.6135,0,0,0,0,0,0,2.4161,2.4238,2.4708,2.4735,2.4477,2.4781,2.4834,2.4937,2.5217,2.526,2.5101,2.511,2.5491,2.5529,2.5564,2.5706,2.5717,2.5733,2.5742,2.6134,2.6134,2.6135,0,0,0,0,0,0,2.4147,2.4201,2.4691,2.4491,2.4557,2.4792,2.4905,2.4945,2.5029,2.5266,2.5308,2.5143,2.5493,2.5541,2.5703,2.5724,2.574,2.5756,2.6133,2.6134,2.6135,2.5988,0,0,0,0,0,0,2.4128,2.4195,2.4238,2.4491,2.4567,2.4825,2.4907,2.4954,2.5059,2.5074,2.5316,2.5356,2.5497,2.5677,2.572,2.5747,2.5769,2.6132,2.6133,2.6134,2.5992,2.5983,2.5976,0,0,0,0,0,2.4104,2.4177,2.4239,2.4295,2.4627,2.4826,2.4869,2.5033,2.506,2.5104,2.5256,2.5348,2.5714,2.5692,2.5742,2.5774,2.6132,2.6133,2.6134,2.5995,2.5985,2.5976,0,0,0,0,0,0,2.3916,2.4213,2.4285,2.4443,2.4608,2.4861,2.4922,2.5016,2.5174,2.5182,2.5374,2.5427,2.5572,2.569,2.566,2.589,2.5932,2.5943,2.5809,2.5801,2.5793,2.5763,2.5783,0,0,0,0,0,2.3894,2.4034,2.4284,2.4398,2.4478,2.4685,2.4778,2.489,2.5067,2.5137,2.5301,2.5467,2.5621,2.5717,2.587,2.6009,2.6065,2.6056,2.6048,2.6041,2.6049,2.6133,2.6133,2.6139,2.6139,2.6139,0,0,2.3848,2.4027,2.4103,2.4365,2.4507,2.4646,2.4742,2.4884,2.4989,2.5158,2.5324,2.5449,2.5647,2.5799,2.5874,2.5901,2.6059,2.6042,2.6035,2.6047,2.6134,2.6134,2.6133,2.614,2.614,2.614,0,0,2.3836,2.3985,2.4098,2.4239,2.4453,2.4591,2.4617,2.4858,2.4949,2.5118,2.5249,2.5374,2.5633,2.577,2.5873,2.5914,2.6006,2.5958,2.5918,2.5998,2.5998,2.5998,2.6015,2.6018,2.5965,2.5965,2.5965,0,2.375,2.3968,2.4143,2.428,2.4392,2.4555,2.4671,2.4797,2.5048,2.512,2.5148,2.5479,2.5623,2.5811,2.5821,2.5898,2.5935,2.5932,2.5984,2.5986,2.5989,2.6008,2.6013,2.5958,2.5959,2.5959,2.596,0,2.3853,2.4002,2.4067,2.4311,2.443,2.4554,2.4747,2.4845,2.4946,2.508,2.5251,2.5431,2.5625,2.5677,2.5775,2.5879,2.589,2.5947,2.5994,2.5979,2.5999,2.6008,2.5948,2.595,2.5952,2.5954,0,0,2.3735,2.4076,2.4097,2.4211,2.446,2.4577,2.4708,2.4902,2.4983,2.515,2.5266,2.5482,2.5539,2.5656,2.5771,2.5841,2.5865,2.5892,2.5899,2.5882,2.5992,2.5949,2.5954,2.5926,2.5928,2.593,2.5977,0,2.3759,2.4007,2.417,2.4352,2.4492,2.4649,2.4764,2.4928,2.5056,2.5192,2.5332,2.5484,2.5546,2.5618,2.5694,2.5845,2.589,2.5844,2.6035,2.604,2.5983,2.5964,2.5919,2.5954,2.5985,2.5987,2.5988,0,2.3821,2.3989,2.4186,2.4423,2.4487,2.4588,2.478,2.4907,2.5096,2.5184,2.5316,2.5434,2.5578,2.5611,2.5812,2.5778,2.5865,2.5951,2.5956,2.5982,2.6014,2.5991,2.5969,2.5974,2.6002,2.6001,2.6,0,2.3717,2.3992,2.4147,2.4239,2.4517,2.4585,2.4703,2.4893,2.4999,2.5165,2.5237,2.5415,2.5513,2.5648,2.5811,2.5819,2.5996,2.6042,2.6074,2.607,2.6105,2.6101,2.6099,2.6157,2.6157,2.6157,2.6157,0,2.3729,2.3843,2.4105,2.42,2.4333,2.4518,2.4644,2.4775,2.4942,2.5065,2.5209,2.532,2.5528,2.5664,2.5791,2.594,2.5982,2.6057,2.609,2.6046,2.6037,2.6107,2.6109,2.6159,2.6158,2.6158,2.6158,0,2.3636,2.3816,2.3995,2.4246,2.4311,2.4399,2.4612,2.471,2.4846,2.4999,2.5045,2.5259,2.5427,2.5603,2.5829,2.5915,2.6059,2.6103,2.5996,2.6015,2.6038,2.6034,2.6083,2.6099,2.6143,2.6142,2.6142,0,2.3632,2.3726,2.3987,2.4082,2.4198,2.4346,2.4458,2.4642,2.4751,2.4974,2.5044,2.5224,2.5378,2.5638,2.5812,2.5986,2.6038,2.6043,2.6064,2.6018,2.6041,2.6034,2.6045,2.6035,2.6033,2.6032,2.6031,0,2.3608,2.3693,2.3849,2.4037,2.4166,2.4321,2.4482,2.455,2.4765,2.488,2.5056,2.5175,2.5409,2.5585,2.5781,2.5901,2.6002,2.6023,2.6041,2.5997,2.5932,2.597,2.5978,2.6021,2.6022,2.6023,2.6024,2.6024,2.3562,2.3653,2.3853,2.4022,2.4163,2.4311,2.4416,2.4567,2.4718,2.4925,2.5023,2.5199,2.5387,2.5661,2.5778,2.5918,2.5947,2.597,2.5977,2.5981,2.5971,2.5908,2.5953,2.5954,2.5954,2.5955,2.5955,0,2.3547,2.3684,2.3838,2.4061,2.4193,2.428,2.4463,2.4568,2.4722,2.4889,2.5039,2.5241,2.5413,2.5602,2.5785,2.586,2.5911,2.5902,2.5899,2.5926,2.5933,2.5901,2.5858,2.5858,2.5858,2.5858,2.5858,2.5858,2.3555,2.3715,2.3823,2.4054,2.419,2.4366,2.4463,2.46,2.4735,2.4956,2.5101,2.5224,2.54,2.5598,2.576,2.5811,2.5872,2.585,2.5914,2.5917,2.5925,2.5932,2.5903,2.5861,2.5861,2.5896,2.5896,2.5897]},{"header":{"parameterUnit":"m.s-1","parameterCategory":1,"la1":30.2991,"la2":30.254,"lo1":-89.0895,"lo2":-89.0444,"dy":0.0017,"dx":0.0017,"nx":28,"ny":28,"refTime":"2024-07-13T09:00:00:Z","depth":0,"parameterNumber":3,"parameterNumberName":"V-component_of_WINDS"},"data":[0,0,0,0,0,0,0,0,0,0,0,0,0,0,0,0,0,0,0,0,0,0,0,0,0,0,0,0,0,0,0,0,0,0,0,0,0,0,0,0,0,0,0,0,0,0,0,0,0,0,0,0,0,0,0,0,0,0,1.5467,1.547,0,1.5724,1.5726,1.5729,1.577,1.5767,1.5765,1.5763,1.603,1.6039,1.6048,0,0,0,0,0,0,0,0,0,0,0,0,0,1.5016,1.5024,1.5467,1.547,1.5474,1.5723,1.5727,1.573,1.577,1.5767,1.5764,1.5762,1.6027,1.6038,1.6049,0,0,0,0,0,0,0,0,0,0,0,0,0,1.5236,1.5027,1.5467,1.5523,1.5531,1.5722,1.5727,1.5731,1.5771,1.5767,1.5764,1.5761,1.6024,1.6037,1.6051,1.6205,0,0,1.6093,1.6099,0,0,0,0,0,0,0,0,1.5224,1.5253,1.5512,1.552,1.5529,1.5711,1.5666,1.589,1.5771,1.568,1.5763,1.5759,1.5927,1.5949,1.6005,1.6218,1.6229,1.6094,1.6103,1.6109,1.6113,0,0,0,0,0,0,0,1.5208,1.5242,1.5569,1.5516,1.5526,1.5537,1.5565,1.5708,1.582,1.5688,1.5691,1.5721,1.5931,1.5991,1.6011,1.6233,1.6094,1.6106,1.6115,1.612,1.6587,1.6591,0,0,0,0,0,0,1.5182,1.5229,1.5561,1.5576,1.5364,1.5548,1.5579,1.5656,1.5818,1.584,1.5723,1.5721,1.5969,1.5995,1.6021,1.6215,1.6109,1.6122,1.613,1.6583,1.6588,1.6592,0,0,0,0,0,0,1.5172,1.5212,1.555,1.5404,1.5448,1.556,1.5646,1.5663,1.5723,1.5845,1.5866,1.5764,1.5967,1.6001,1.6159,1.6225,1.6128,1.6141,1.6578,1.6584,1.659,1.6602,0,0,0,0,0,0,1.5159,1.5208,1.5267,1.5405,1.5455,1.5684,1.565,1.567,1.5746,1.5746,1.5889,1.5909,1.5967,1.6138,1.6173,1.6242,1.6151,1.6573,1.6581,1.6588,1.6597,1.6608,1.6618,0,0,0,0,0,1.5143,1.5261,1.527,1.531,1.5531,1.5687,1.5716,1.578,1.5751,1.5813,1.5891,1.5905,1.621,1.6154,1.6193,1.6268,1.6569,1.6579,1.6588,1.6592,1.6606,1.6617,0,0,0,0,0,0,1.513,1.528,1.5292,1.5457,1.5559,1.5694,1.5773,1.5792,1.5905,1.5901,1.5975,1.6007,1.6162,1.623,1.6164,1.6426,1.6388,1.6405,1.6377,1.6392,1.6402,1.6385,1.6163,0,0,0,0,0,1.5146,1.5258,1.5384,1.5518,1.5568,1.5661,1.5731,1.5771,1.588,1.5924,1.6014,1.612,1.6241,1.6319,1.6436,1.6604,1.6638,1.6674,1.6685,1.6693,1.6709,1.6806,1.6825,1.6622,1.6622,1.6622,0,0,1.5182,1.5277,1.5344,1.5518,1.5601,1.5718,1.5698,1.5822,1.591,1.5943,1.6099,1.6167,1.6291,1.6456,1.6532,1.6517,1.6771,1.6704,1.671,1.6723,1.6817,1.6836,1.6853,1.6629,1.6627,1.6626,0,0,1.5307,1.5388,1.5511,1.5594,1.5719,1.578,1.5809,1.5941,1.5988,1.6144,1.6172,1.6277,1.6481,1.657,1.6641,1.6796,1.6814,1.6831,1.6889,1.6982,1.6998,1.7013,1.7072,1.7092,1.6845,1.6846,1.6846,0,1.5336,1.5512,1.5571,1.5695,1.5772,1.5803,1.5929,1.6007,1.6165,1.6218,1.6196,1.6454,1.654,1.6726,1.6764,1.6818,1.6856,1.6819,1.6991,1.7006,1.7021,1.7078,1.71,1.6847,1.6847,1.6847,1.6847,0,1.5544,1.5665,1.5748,1.5899,1.5984,1.6107,1.6187,1.6265,1.6296,1.6359,1.6518,1.662,1.676,1.6805,1.6837,1.6997,1.6984,1.6975,1.694,1.7041,1.7096,1.7118,1.685,1.6849,1.6849,1.6848,0,0,1.5675,1.5853,1.5884,1.5953,1.6092,1.6188,1.6312,1.6446,1.6515,1.662,1.673,1.69,1.6893,1.6974,1.7015,1.7095,1.7216,1.7078,1.7082,1.7104,1.7403,1.7412,1.7437,1.7225,1.723,1.7233,1.7394,0,1.5821,1.6044,1.6099,1.6291,1.6405,1.6435,1.6543,1.6641,1.6702,1.6809,1.6876,1.6998,1.6977,1.7027,1.7107,1.7184,1.7278,1.7172,1.7332,1.7337,1.7306,1.7465,1.7477,1.7623,1.7415,1.7419,1.7422,0,1.6023,1.6132,1.6334,1.6459,1.6509,1.6606,1.6734,1.6833,1.6945,1.6983,1.7072,1.7104,1.7237,1.7188,1.7373,1.73,1.7367,1.7414,1.7422,1.7445,1.739,1.7498,1.7671,1.7695,1.7456,1.7453,1.7451,0,1.6104,1.6301,1.6449,1.6506,1.6653,1.6721,1.6786,1.6893,1.697,1.7081,1.7133,1.7257,1.7327,1.7424,1.749,1.7447,1.767,1.7627,1.771,1.7709,1.7762,1.7759,1.7954,1.7794,1.7794,1.7793,1.7793,0,1.6265,1.6389,1.6487,1.6579,1.6718,1.678,1.6917,1.6982,1.7077,1.7183,1.7213,1.7312,1.739,1.7499,1.7551,1.7698,1.7728,1.7765,1.7779,1.7767,1.7763,1.7817,1.7811,1.7799,1.7798,1.7797,1.7796,0,1.6384,1.6453,1.6617,1.6741,1.6775,1.6873,1.6981,1.7071,1.713,1.7264,1.7298,1.7393,1.7523,1.7596,1.776,1.7794,1.7961,1.7966,1.7923,1.7931,1.8012,1.8005,1.8254,1.8292,1.8101,1.8102,1.8104,0,1.6485,1.6581,1.6715,1.6787,1.6853,1.6968,1.7046,1.7109,1.719,1.7322,1.7397,1.7528,1.7638,1.7844,1.7929,1.8054,1.8067,1.8145,1.8086,1.8071,1.8075,1.8071,1.8082,1.8158,1.8159,1.8161,1.8162,0,1.666,1.6689,1.68,1.6923,1.7015,1.7115,1.7214,1.7272,1.7351,1.744,1.7572,1.7656,1.7822,1.7954,1.8086,1.8154,1.8173,1.8178,1.8205,1.8197,1.8171,1.8191,1.7958,1.8174,1.8173,1.8172,1.8171,1.8171,1.6777,1.6864,1.6972,1.7095,1.7175,1.7267,1.7358,1.7428,1.7539,1.7679,1.7708,1.7849,1.7957,1.8135,1.8206,1.8318,1.8304,1.8341,1.8352,1.8362,1.8368,1.8146,1.8341,1.8341,1.8341,1.8341,1.834,0,1.6958,1.7028,1.7139,1.7277,1.7373,1.7377,1.7486,1.7568,1.7691,1.7789,1.7895,1.8047,1.8174,1.8266,1.8396,1.8468,1.848,1.85,1.8499,1.8515,1.8371,1.8337,1.8489,1.8489,1.8489,1.8489,1.8489,1.8489,1.7064,1.7213,1.7254,1.7443,1.7512,1.765,1.7712,1.7797,1.7876,1.8045,1.815,1.8207,1.8304,1.844,1.8557,1.8581,1.863,1.865,1.8676,1.8541,1.8525,1.851,1.848,1.8659,1.8659,1.8812,1.8814,1.8815]}]]